FENGYUN 1C DEB, 35104

Orbit data source: Space-Track

FENGYUN 1C DEB, 35104 is space debris in SSO originally from a launch on Mon, 10 May 1999 UTC launched from the Taiyaun Space Center, China (TSC). Fengyun 1C debris stems from the Chinese weather satellite Fengyun-1C, which was intentionally destroyed by a Chinese anti-satellite missile in 2007. This event dramatically increased the amount of space debris, with thousands of trackable fragments posing hazards to satellites and human spaceflight. The Fengyun 1C debris cloud has become a focal point in discussions about space sustainability and the need for international regulations to prevent the creation of new debris.

Loading next visibility...
Identifier
35104, 1999-025DKG
Orbit
SSO
Country
Flag of CNCN / PRC
Related business
Manufacturer
Unknown
Mission
Spacecraft
Bus & Motor
Unknown
Mass
Unknown
Launch date (UTC)
1999-05-10 (26 years ago)
Launch vehicle
Unknown
Launch site
Taiyaun Space Center, China (TSC)
Object type
Payload
Rocket body
Debris
Shape & HBR
Unknown shape, 0.1 m
Radar Cross Section
Small (<0.1 m²)

Expand to show TLE details & history
Last TLE update: 3 days ago

TLE from 3 days ago
0 FENGYUN 1C DEB
1 35104U 99025DKG 25299.78712973  .00001130  00000-0  54675-3 0  9994
2 35104  98.5984 307.8090 0029630 278.4870 263.5111 14.20208104891000
Epoch: 2025-10-26T18:53Z
TLE epoch observation values (Epoch: 2025-10-26T18:53:28.008Z)
Latitude
-1.76927°
Longitude
168.77779°
Altitude
830.289 km
Speed
7.436 km/s
True Right ascension
08h 30m 10s
True Declination
-1° 45' 32"
Sunlit
Object was in daylight at epoch
Visualization orbit readout
Latitude
Unknown
Longitude
Unknown
Altitude
Unknown
Speed
Unknown
Apparent Right ascension
Unknown
Apparent Declination
Unknown
Sunlit
N/A
Visualization observer readout
Local Sidereal Time
23:19:25
Azimuth
Unknown
Elevation
Unknown
Doppler factor
Unknown
Orbital elements
Apogee altitude
843.135 km
Perigee altitude
800.469 km
Semi-major axis
7,199.939 km
Eccentricity
0.00296
Inclination
98.5984°
RAAN
307.809°
Arg. of periapsis
278.487°
True anomaly
263.17388°
Mean anomaly
263.5111°
Eccentric anomaly
263.34248°
Mean motion
3.55263 °/min
Orbital period
101.33 mins
BSTAR
0.00054675
Loading maneuver chart data...
Computing Atmospheric mass density...

Documentation

Showing up to 5 results
|